﻿#観測日時,平均風速,平均風向,最大風速,最大風速発生風向,最大瞬間風速,最大瞬間風速発生風向
#(年月日),(m/s)   ,(16方位),(m/s)   ,(16方位)        ,(m/s)       ,(16方位)            
2019/12/12 0:01,0.3,3,0.3,16,1.3,16
2019/12/12 0:02,0.3,3,0.4,3,1.3,16
2019/12/12 0:03,0.4,2,0.4,3,1.3,10
2019/12/12 0:04,0.4,1,0.4,3,1,9
2019/12/12 0:05,0.4,2,0.4,3,0.1,4
2019/12/12 0:06,0.4,2,0.4,3,0.5,3
2019/12/12 0:07,0.4,1,0.4,3,0.9,8
2019/12/12 0:08,0.4,9,0.4,3,1.1,9
2019/12/12 0:09,0.3,9,0.4,3,0.1,11
2019/12/12 0:10,0.3,9,0.3,3,0.1,3
2019/12/12 0:11,0.3,10,0.3,3,0.4,11
2019/12/12 0:12,0.2,10,0.3,2,0.5,13
2019/12/12 0:13,0.2,10,0.3,2,0.8,14
2019/12/12 0:14,0.2,11,0.2,1,0.6,15
2019/12/12 0:15,0.2,12,0.2,2,0.1,12
2019/12/12 0:16,0.3,12,0.3,1,1.3,16
2019/12/12 0:17,0.3,13,0.3,1,1.3,1
2019/12/12 0:18,0.2,14,0.3,9,0.1,1
2019/12/12 0:19,0.2,14,0.2,9,0.1,13
2019/12/12 0:20,0.3,14,0.3,9,1.6,16
2019/12/12 0:21,0.4,15,0.4,14,1.8,16
2019/12/12 0:22,0.4,15,0.5,15,0.9,1
2019/12/12 0:23,0.4,15,0.4,15,0.1,15
2019/12/12 0:24,0.4,15,0.4,15,0.1,12
2019/12/12 0:25,0.4,15,0.4,15,0.8,15
2019/12/12 0:26,0.4,15,0.4,15,0.9,16
2019/12/12 0:27,0.4,16,0.4,15,0.4,2
2019/12/12 0:28,0.4,15,0.4,15,0.1,10
2019/12/12 0:29,0.4,15,0.4,15,1,10
2019/12/12 0:30,0.3,14,0.4,15,0.1,10
2019/12/12 0:31,0.2,13,0.3,15,1.1,10
2019/12/12 0:32,0.3,12,0.3,15,1.3,10
2019/12/12 0:33,0.4,11,0.4,15,2,9
2019/12/12 0:34,0.6,11,0.6,11,2.1,10
2019/12/12 0:35,0.7,10,0.7,10,2,9
2019/12/12 0:36,0.8,10,0.8,10,2.1,11
2019/12/12 0:37,0.9,10,0.9,10,1.8,11
2019/12/12 0:38,1,10,1,10,1.8,10
2019/12/12 0:39,1,10,1,10,1.6,10
2019/12/12 0:40,1.1,10,1.1,10,1.8,12
2019/12/12 0:41,1.2,11,1.2,10,1.9,12
2019/12/12 0:42,1.3,11,1.3,11,1.9,12
2019/12/12 0:43,1.3,11,1.3,11,1.6,13
2019/12/12 0:44,1.2,11,1.3,11,1.4,12
2019/12/12 0:45,1,12,1.2,11,0.1,12
2019/12/12 0:46,0.8,12,1,11,0.1,14
2019/12/12 0:47,0.7,12,0.8,11,0.1,15
2019/12/12 0:48,0.6,13,0.7,11,0.1,15
2019/12/12 0:49,0.5,13,0.6,11,0,14
2019/12/12 0:50,0.4,14,0.5,11,0,2
2019/12/12 0:51,0.3,14,0.4,11,0.1,15
2019/12/12 0:52,0.2,15,0.3,11,0.3,16
2019/12/12 0:53,0.1,15,0.2,11,0.8,16
2019/12/12 0:54,0.1,15,0.1,12,0.1,14
2019/12/12 0:55,0.1,16,0.1,12,0.8,16
2019/12/12 0:56,0.1,16,0.1,12,0.5,16
2019/12/12 0:57,0.1,16,0.1,12,0.3,3
2019/12/12 0:58,0.1,16,0.1,13,0.1,11
2019/12/12 0:59,0.1,16,0.1,13,0.1,4
2019/12/12 1:00,0.1,16,0.1,14,0.1,4
2019/12/12 1:01,0.1,16,0.1,14,0.1,4
2019/12/12 1:02,0.1,1,0.1,15,0.1,10
2019/12/12 1:03,0.1,1,0.1,15,0.1,8
2019/12/12 1:04,0.1,1,0.1,15,0.8,1
2019/12/12 1:05,0.1,2,0.1,16,0.4,1
2019/12/12 1:06,0.1,4,0.1,16,0.9,9
2019/12/12 1:07,0.2,6,0.2,4,1.3,9
2019/12/12 1:08,0.2,6,0.2,4,1,9
2019/12/12 1:09,0.2,6,0.2,4,0.8,10
2019/12/12 1:10,0.2,10,0.2,4,0,15
2019/12/12 1:11,0.2,10,0.2,4,0.3,5
2019/12/12 1:12,0.2,11,0.2,4,0.4,5
2019/12/12 1:13,0.2,11,0.2,4,0.3,15
2019/12/12 1:14,0.2,11,0.2,4,0.1,12
2019/12/12 1:15,0.2,12,0.2,4,1,1
2019/12/12 1:16,0.3,14,0.3,13,1,1
2019/12/12 1:17,0.2,14,0.2,13,1.4,9
2019/12/12 1:18,0.3,14,0.3,13,1.4,9
2019/12/12 1:19,0.3,14,0.3,13,1.1,10
2019/12/12 1:20,0.3,1,0.3,13,0.4,3
2019/12/12 1:21,0.4,9,0.4,6,1.3,8
2019/12/12 1:22,0.4,11,0.4,6,1,11
2019/12/12 1:23,0.5,8,0.5,9,2,10
2019/12/12 1:24,0.5,8,0.5,9,1,9
2019/12/12 1:25,0.5,8,0.6,8,0.9,4
2019/12/12 1:26,0.6,7,0.6,8,1.3,4
2019/12/12 1:27,0.6,6,0.6,8,1.3,3
2019/12/12 1:28,0.6,6,0.6,8,1.5,11
2019/12/12 1:29,0.6,6,0.6,8,1.1,12
2019/12/12 1:30,0.7,6,0.7,6,0.9,1
2019/12/12 1:31,0.6,4,0.7,6,0.6,1
2019/12/12 1:32,0.6,2,0.6,6,0.6,1
2019/12/12 1:33,0.5,2,0.6,6,0.1,12
2019/12/12 1:34,0.5,1,0.5,6,0.1,15
2019/12/12 1:35,0.4,16,0.5,6,0.5,13
2019/12/12 1:36,0.4,14,0.4,6,0.1,12
2019/12/12 1:37,0.4,13,0.4,6,0.9,11
2019/12/12 1:38,0.3,13,0.4,6,0.9,11
2019/12/12 1:39,0.3,14,0.3,6,0.6,15
2019/12/12 1:40,0.2,14,0.3,6,0.5,1
2019/12/12 1:41,0.2,13,0.2,4,0.1,5
2019/12/12 1:42,0.2,13,0.2,3,1.1,13
2019/12/12 1:43,0.3,13,0.3,2,1.3,12
2019/12/12 1:44,0.3,13,0.3,1,0.8,13
2019/12/12 1:45,0.3,13,0.3,15,0.1,14
2019/12/12 1:46,0.3,13,0.3,13,0.4,7
2019/12/12 1:47,0.2,13,0.3,13,0.6,10
2019/12/12 1:48,0.2,12,0.2,13,0.9,8
2019/12/12 1:49,0.2,11,0.2,14,0.3,8
2019/12/12 1:50,0.2,11,0.2,13,0,10
2019/12/12 1:51,0.2,11,0.2,13,1,2
2019/12/12 1:52,0.3,11,0.3,13,1.9,1
2019/12/12 1:53,0.4,11,0.4,11,1.9,1
2019/12/12 1:54,0.4,11,0.4,11,1.5,16
2019/12/12 1:55,0.4,11,0.4,11,0.9,16
2019/12/12 1:56,0.5,14,0.5,13,1.1,14
2019/12/12 1:57,0.5,15,0.5,13,0.9,14
2019/12/12 1:58,0.5,15,0.5,13,0,14
2019/12/12 1:59,0.5,15,0.5,13,1,10
2019/12/12 2:00,0.6,15,0.6,15,1.4,9
2019/12/12 2:01,0.6,14,0.6,15,0.4,7
2019/12/12 2:02,0.5,13,0.6,15,1.1,9
2019/12/12 2:03,0.4,13,0.5,15,1.4,10
2019/12/12 2:04,0.5,12,0.5,15,1.4,10
2019/12/12 2:05,0.5,11,0.5,15,0.9,8
2019/12/12 2:06,0.4,11,0.5,15,0.4,10
2019/12/12 2:07,0.4,10,0.4,15,1.5,10
2019/12/12 2:08,0.5,10,0.5,15,1.8,10
2019/12/12 2:09,0.5,10,0.6,15,1.4,9
2019/12/12 2:10,0.6,10,0.6,15,2,10
2019/12/12 2:11,0.7,10,0.7,10,1.6,10
2019/12/12 2:12,0.6,10,0.7,10,0.8,11
2019/12/12 2:13,0.6,10,0.6,10,0.8,10
2019/12/12 2:14,0.6,11,0.6,10,1,12
2019/12/12 2:15,0.6,11,0.6,10,1,10
2019/12/12 2:16,0.6,10,0.6,10,0.8,10
2019/12/12 2:17,0.6,10,0.6,10,0.1,9
2019/12/12 2:18,0.5,10,0.6,10,0.1,11
2019/12/12 2:19,0.4,10,0.5,10,0.1,8
2019/12/12 2:20,0.3,10,0.4,10,0,9
2019/12/12 2:21,0.2,9,0.3,10,0,7
2019/12/12 2:22,0.2,9,0.3,10,0.1,1
2019/12/12 2:23,0.2,10,0.2,10,0.1,13
2019/12/12 2:24,0.1,10,0.2,11,0.3,12
2019/12/12 2:25,0,10,0.1,11,0,14
2019/12/12 2:26,0,10,0,10,0.1,13
2019/12/12 2:27,0,10,0,10,0.1,4
2019/12/12 2:28,0,8,0,10,0.1,3
2019/12/12 2:29,0.1,3,0.1,10,1,2
2019/12/12 2:30,0.1,1,0.1,10,1.1,1
2019/12/12 2:31,0.2,16,0.2,9,0.9,2
2019/12/12 2:32,0.3,1,0.3,16,1.4,1
2019/12/12 2:33,0.4,1,0.4,1,1.5,1
2019/12/12 2:34,0.4,2,0.4,1,1.4,1
2019/12/12 2:35,0.5,2,0.5,2,1.1,1
2019/12/12 2:36,0.6,2,0.6,2,1.5,2
2019/12/12 2:37,0.7,2,0.7,2,1.8,16
2019/12/12 2:38,0.9,1,0.9,1,1.9,16
2019/12/12 2:39,0.9,1,0.9,1,1.5,16
2019/12/12 2:40,0.9,1,0.9,1,1.5,15
2019/12/12 2:41,0.9,16,1,1,1.1,15
2019/12/12 2:42,0.9,16,0.9,1,1,14
2019/12/12 2:43,0.8,16,0.9,1,0.6,15
2019/12/12 2:44,0.8,16,0.8,1,0.4,15
2019/12/12 2:45,0.7,15,0.8,1,0.4,13
2019/12/12 2:46,0.7,15,0.7,1,0.9,13
2019/12/12 2:47,0.6,14,0.7,1,0.8,12
2019/12/12 2:48,0.6,14,0.6,1,1.8,13
2019/12/12 2:49,0.6,14,0.6,1,1.9,14
2019/12/12 2:50,0.6,13,0.6,1,0.9,12
2019/12/12 2:51,0.5,13,0.5,16,0.8,11
2019/12/12 2:52,0.5,13,0.5,16,0.1,6
2019/12/12 2:53,0.4,13,0.5,16,0.3,13
2019/12/12 2:54,0.4,12,0.4,16,0.1,9
2019/12/12 2:55,0.4,12,0.4,15,0.5,14
2019/12/12 2:56,0.4,12,0.4,15,0.3,11
2019/12/12 2:57,0.4,11,0.4,14,0.8,9
2019/12/12 2:58,0.2,11,0.4,14,0.1,9
2019/12/12 2:59,0.1,11,0.2,14,0.4,10
2019/12/12 3:00,0.1,10,0.2,13,0.5,10
2019/12/12 3:01,0.2,11,0.2,13,0.8,12
2019/12/12 3:02,0.2,11,0.2,13,0.8,10
2019/12/12 3:03,0.3,11,0.3,12,1,9
2019/12/12 3:04,0.3,11,0.3,12,0.9,12
2019/12/12 3:05,0.4,11,0.4,12,1.1,13
2019/12/12 3:06,0.5,11,0.5,11,1,13
2019/12/12 3:07,0.5,12,0.5,11,1.1,13
2019/12/12 3:08,0.6,11,0.6,12,1.3,9
2019/12/12 3:09,0.6,11,0.6,12,1.4,10
2019/12/12 3:10,0.7,11,0.7,11,1.4,11
2019/12/12 3:11,0.7,11,0.7,11,2.2,8
2019/12/12 3:12,0.8,11,0.8,11,1.9,10
2019/12/12 3:13,0.8,11,0.8,11,1.4,10
2019/12/12 3:14,0.7,11,0.8,11,0.5,7
2019/12/12 3:15,0.7,11,0.7,11,0.9,11
2019/12/12 3:16,0.6,11,0.6,11,0.6,13
2019/12/12 3:17,0.5,10,0.6,11,0.4,12
2019/12/12 3:18,0.5,11,0.5,11,0.8,11
2019/12/12 3:19,0.5,11,0.5,11,0.6,13
2019/12/12 3:20,0.4,11,0.5,11,0.4,11
2019/12/12 3:21,0.3,11,0.4,11,0.4,11
2019/12/12 3:22,0.2,11,0.3,11,0.8,2
2019/12/12 3:23,0.3,11,0.3,11,1.3,3
2019/12/12 3:24,0.4,12,0.4,11,1.5,3
2019/12/12 3:25,0.4,13,0.4,11,1.1,3
2019/12/12 3:26,0.4,14,0.4,10,1,2
2019/12/12 3:27,0.4,16,0.4,10,0.5,2
2019/12/12 3:28,0.4,1,0.4,11,0.4,15
2019/12/12 3:29,0.4,2,0.4,11,0.6,4
2019/12/12 3:30,0.4,3,0.4,11,0.6,6
2019/12/12 3:31,0.4,3,0.4,12,0.9,6
2019/12/12 3:32,0.5,4,0.5,3,0.8,6
2019/12/12 3:33,0.4,5,0.5,3,0.3,8
2019/12/12 3:34,0.4,6,0.4,3,1.3,8
2019/12/12 3:35,0.4,7,0.4,3,1.9,8
2019/12/12 3:36,0.5,7,0.5,3,1.5,9
2019/12/12 3:37,0.5,8,0.5,3,1.6,9
2019/12/12 3:38,0.5,8,0.5,3,0.4,9
2019/12/12 3:39,0.5,9,0.5,3,0.1,14
2019/12/12 3:40,0.5,9,0.5,3,0.1,14
2019/12/12 3:41,0.4,10,0.5,3,0.5,3
2019/12/12 3:42,0.4,11,0.4,4,1.3,13
2019/12/12 3:43,0.5,12,0.5,7,1.6,15
2019/12/12 3:44,0.5,13,0.5,7,0.6,15
2019/12/12 3:45,0.4,14,0.5,7,0.9,15
2019/12/12 3:46,0.4,14,0.4,8,0.5,8
2019/12/12 3:47,0.3,14,0.3,8,1.5,11
2019/12/12 3:48,0.4,14,0.4,8,1.4,11
2019/12/12 3:49,0.4,14,0.4,9,1.4,6
2019/12/12 3:50,0.6,13,0.6,14,3.3,8
2019/12/12 3:51,0.8,12,0.8,13,3.3,8
2019/12/12 3:52,0.9,12,0.9,12,3.5,8
2019/12/12 3:53,0.9,11,0.9,12,1.6,12
2019/12/12 3:54,1,11,1,11,2.5,10
2019/12/12 3:55,1.2,11,1.2,11,3.3,10
2019/12/12 3:56,1.4,11,1.4,11,3.1,11
2019/12/12 3:57,1.4,11,1.4,11,2.1,9
2019/12/12 3:58,1.5,10,1.5,11,2.6,10
2019/12/12 3:59,1.6,10,1.6,10,3.7,9
2019/12/12 4:00,1.4,10,1.6,10,1,12
2019/12/12 4:01,1.3,10,1.4,10,1.6,8
2019/12/12 4:02,1.2,10,1.3,10,1,7
2019/12/12 4:03,1.2,10,1.2,10,2.5,6
2019/12/12 4:04,1.1,10,1.2,10,1,10
2019/12/12 4:05,1,10,1.1,10,0.9,12
2019/12/12 4:06,0.9,10,1,10,2.1,10
2019/12/12 4:07,0.8,9,0.9,10,1.4,9
2019/12/12 4:08,0.7,10,0.8,10,0.8,11
2019/12/12 4:09,0.6,10,0.7,10,0.4,15
2019/12/12 4:10,0.6,10,0.6,10,1,9
2019/12/12 4:11,0.6,10,0.6,10,1.8,8
2019/12/12 4:12,0.6,10,0.6,10,1.6,11
2019/12/12 4:13,0.7,10,0.7,10,2,11
2019/12/12 4:14,0.7,10,0.7,10,1.9,10
2019/12/12 4:15,0.7,10,0.7,10,1.3,12
2019/12/12 4:16,0.7,10,0.8,10,1,11
2019/12/12 4:17,0.7,11,0.7,9,1.9,2
2019/12/12 4:18,0.8,10,0.8,10,1.6,1
2019/12/12 4:19,0.8,10,0.8,10,1.1,3
2019/12/12 4:20,0.9,10,0.9,10,2,9
2019/12/12 4:21,0.8,10,0.9,10,1.5,8
2019/12/12 4:22,0.8,7,0.8,10,1,2
2019/12/12 4:23,0.7,3,0.8,10,0.6,1
2019/12/12 4:24,0.6,3,0.7,10,0.6,1
2019/12/12 4:25,0.5,3,0.6,10,1,1
2019/12/12 4:26,0.5,2,0.5,10,1.4,1
2019/12/12 4:27,0.5,2,0.5,10,0.4,12
2019/12/12 4:28,0.4,2,0.4,10,1,15
2019/12/12 4:29,0.4,1,0.4,10,0.8,2
2019/12/12 4:30,0.3,2,0.4,10,0.4,7
2019/12/12 4:31,0.3,2,0.3,10,1.4,9
2019/12/12 4:32,0.3,1,0.3,7,1.5,8
2019/12/12 4:33,0.3,1,0.3,3,0.1,2
2019/12/12 4:34,0.3,1,0.3,3,1.6,3
2019/12/12 4:35,0.4,1,0.4,3,1.4,4
2019/12/12 4:36,0.5,3,0.5,2,1.3,4
2019/12/12 4:37,0.5,3,0.5,2,1.8,9
2019/12/12 4:38,0.5,5,0.5,2,1,9
2019/12/12 4:39,0.5,5,0.5,2,0.1,12
2019/12/12 4:40,0.5,7,0.5,2,1.5,8
2019/12/12 4:41,0.5,8,0.5,2,1.8,8
2019/12/12 4:42,0.5,8,0.5,2,1.1,7
2019/12/12 4:43,0.6,8,0.6,8,1.1,7
2019/12/12 4:44,0.5,9,0.6,8,0.8,13
2019/12/12 4:45,0.4,10,0.5,8,0.4,15
2019/12/12 4:46,0.4,10,0.4,8,0.8,5
2019/12/12 4:47,0.3,9,0.4,8,0.5,5
2019/12/12 4:48,0.3,8,0.3,8,0.1,9
2019/12/12 4:49,0.3,7,0.3,8,0.4,3
2019/12/12 4:50,0.3,6,0.3,8,0.8,4
2019/12/12 4:51,0.3,5,0.3,8,0.5,4
2019/12/12 4:52,0.2,5,0.3,8,0.4,8
2019/12/12 4:53,0.2,5,0.2,8,0.8,9
2019/12/12 4:54,0.2,5,0.2,9,1.3,6
2019/12/12 4:55,0.2,5,0.2,10,0.6,6
2019/12/12 4:56,0.2,5,0.2,10,0.6,1
2019/12/12 4:57,0.2,4,0.2,9,1.3,2
2019/12/12 4:58,0.3,4,0.3,8,0.8,16
2019/12/12 4:59,0.3,4,0.3,7,1.6,1
2019/12/12 5:00,0.3,4,0.3,6,1.3,16
2019/12/12 5:01,0.3,3,0.3,5,0.1,13
2019/12/12 5:02,0.3,4,0.3,4,1.8,8
2019/12/12 5:03,0.4,3,0.4,3,2.5,9
2019/12/12 5:04,0.4,3,0.5,3,2.4,10
2019/12/12 5:05,0.4,3,0.4,3,1.4,6
2019/12/12 5:06,0.5,3,0.5,3,1.4,6
2019/12/12 5:07,0.5,4,0.5,3,1.1,2
2019/12/12 5:08,0.5,5,0.5,3,0.6,4
2019/12/12 5:09,0.5,7,0.5,3,1.3,10
2019/12/12 5:10,0.5,9,0.5,3,1,3
2019/12/12 5:11,0.6,9,0.6,9,1.4,13
2019/12/12 5:12,0.6,10,0.6,9,2,9
2019/12/12 5:13,0.7,10,0.7,10,2.2,10
2019/12/12 5:14,0.8,10,0.8,10,2.2,10
2019/12/12 5:15,0.8,11,0.8,10,2.1,10
2019/12/12 5:16,0.9,11,0.9,11,1.9,12
2019/12/12 5:17,1,11,1,11,1.6,11
2019/12/12 5:18,1.1,11,1.1,11,1.4,12
2019/12/12 5:19,1.2,11,1.2,11,3,10
2019/12/12 5:20,1.3,10,1.3,11,4.3,9
2019/12/12 5:21,1.3,10,1.3,11,1.3,2
2019/12/12 5:22,1.3,10,1.3,11,1.6,8
2019/12/12 5:23,1.2,10,1.3,11,1.5,8
2019/12/12 5:24,1.1,10,1.2,11,1.3,9
2019/12/12 5:25,1,10,1.1,11,0.4,16
2019/12/12 5:26,0.9,10,1,11,1.9,1
2019/12/12 5:27,0.9,10,0.9,11,1.4,16
2019/12/12 5:28,0.8,10,0.9,11,0.9,14
2019/12/12 5:29,0.7,8,0.8,11,0.8,16
2019/12/12 5:30,0.7,2,0.7,10,1.6,16
2019/12/12 5:31,0.6,1,0.7,10,1.3,16
2019/12/12 5:32,0.7,1,0.7,10,1.6,3
2019/12/12 5:33,0.6,2,0.7,10,1.8,3
2019/12/12 5:34,0.7,2,0.7,10,2.1,5
2019/12/12 5:35,0.8,3,0.8,10,2.4,14
2019/12/12 5:36,0.9,3,0.9,10,3.8,9
2019/12/12 5:37,1.1,4,1.1,4,4.4,9
2019/12/12 5:38,1.2,5,1.2,5,4.9,9
2019/12/12 5:39,1.4,4,1.4,4,4.1,1
2019/12/12 5:40,1.5,4,1.5,4,3.6,2
2019/12/12 5:41,1.7,5,1.7,5,8.1,13
2019/12/12 5:42,2.1,7,2.1,7,8.6,14
2019/12/12 5:43,2.5,12,2.5,11,8.2,14
2019/12/12 5:44,2.9,13,2.9,13,7.2,9
2019/12/12 5:45,3.1,13,3.1,13,6.4,9
2019/12/12 5:46,3.3,13,3.3,13,8.5,10
2019/12/12 5:47,3.3,13,3.3,13,5,15
2019/12/12 5:48,3.5,14,3.5,14,6.2,12
2019/12/12 5:49,3.8,13,3.8,13,10.7,12
2019/12/12 5:50,4.2,12,4.2,12,8.3,12
2019/12/12 5:51,4.4,12,4.5,12,8.5,1
2019/12/12 5:52,4.4,12,4.4,12,11.3,13
2019/12/12 5:53,4.7,12,4.7,12,13.8,14
2019/12/12 5:54,4.8,13,4.8,12,10.7,15
2019/12/12 5:55,4.8,13,4.9,13,8.5,16
2019/12/12 5:56,4.8,13,4.8,13,8.1,12
2019/12/12 5:57,4.9,13,4.9,13,7.8,12
2019/12/12 5:58,4.9,13,5,13,8.6,11
2019/12/12 5:59,4.8,13,5,13,7,10
2019/12/12 6:00,4.8,13,4.9,13,9,13
2019/12/12 6:01,4.7,13,4.8,13,6.9,15
2019/12/12 6:02,4.6,13,4.7,13,7.1,14
2019/12/12 6:03,4.2,13,4.5,13,8.4,13
2019/12/12 6:04,4.2,13,4.3,13,8.6,15
2019/12/12 6:05,4.1,13,4.2,13,7,12
2019/12/12 6:06,4,13,4.1,13,10.3,13
2019/12/12 6:07,4.2,13,4.2,13,9.4,13
2019/12/12 6:08,4.2,13,4.2,13,9.3,12
2019/12/12 6:09,4.4,13,4.4,13,10.1,13
2019/12/12 6:10,4.2,13,4.3,13,6.2,12
2019/12/12 6:11,4.3,13,4.3,13,9.1,13
2019/12/12 6:12,4.5,13,4.5,13,9.3,12
2019/12/12 6:13,4.4,12,4.5,13,5.6,12
2019/12/12 6:14,4.2,12,4.3,13,4.9,12
2019/12/12 6:15,4.4,12,4.4,13,8.3,13
2019/12/12 6:16,4.4,12,4.4,13,5.5,14
2019/12/12 6:17,4.5,12,4.5,13,11.7,13
2019/12/12 6:18,4.5,13,4.6,12,10.5,16
2019/12/12 6:19,4.5,13,4.6,12,12.3,12
2019/12/12 6:20,4.7,13,4.7,13,8.1,15
2019/12/12 6:21,4.6,13,4.8,13,9.5,15
2019/12/12 6:22,4.3,13,4.5,13,6.1,16
2019/12/12 6:23,4.5,14,4.5,13,7.2,14
2019/12/12 6:24,4.6,14,4.6,13,7.1,13
2019/12/12 6:25,4.5,14,4.7,13,6.4,15
2019/12/12 6:26,4.9,14,4.9,14,8.3,11
2019/12/12 6:27,4.5,14,4.8,14,6.8,12
2019/12/12 6:28,4.5,14,4.5,14,8.3,13
2019/12/12 6:29,4.3,14,4.6,14,9.4,13
2019/12/12 6:30,4.2,14,4.3,14,7.6,15
2019/12/12 6:31,4,13,4.2,14,6,1
2019/12/12 6:32,4.1,13,4.1,14,6.8,14
2019/12/12 6:33,4,13,4.1,14,6.3,13
2019/12/12 6:34,3.9,13,3.9,14,7.7,13
2019/12/12 6:35,4.1,13,4.1,14,10,13
2019/12/12 6:36,4,13,4.2,14,7,14
2019/12/12 6:37,4,13,4.1,14,8.2,12
2019/12/12 6:38,3.9,13,4,14,6,14
2019/12/12 6:39,3.9,13,3.9,14,7,14
2019/12/12 6:40,3.9,13,4,14,7.1,13
2019/12/12 6:41,3.9,13,3.9,13,5.1,11
2019/12/12 6:42,4.1,13,4.1,13,7,12
2019/12/12 6:43,4.2,13,4.2,13,8.1,11
2019/12/12 6:44,4.1,13,4.2,13,8.5,11
2019/12/12 6:45,3.9,12,4.1,13,11.4,10
2019/12/12 6:46,3.9,12,3.9,13,8.2,11
2019/12/12 6:47,3.8,12,3.9,13,7.6,12
2019/12/12 6:48,4,12,4,13,11.1,10
2019/12/12 6:49,4,12,4.1,13,11.3,12
2019/12/12 6:50,4.2,12,4.2,13,7.1,11
2019/12/12 6:51,4.2,12,4.2,13,5.1,10
2019/12/12 6:52,4.1,11,4.2,13,8.1,11
2019/12/12 6:53,4,11,4.1,13,5.6,13
2019/12/12 6:54,4.1,11,4.1,12,6.4,13
2019/12/12 6:55,4.1,12,4.2,12,7.4,13
2019/12/12 6:56,4,12,4.1,12,7.1,11
2019/12/12 6:57,4,12,4.1,12,6.9,11
2019/12/12 6:58,3.8,12,4,12,6.9,12
2019/12/12 6:59,3.6,11,3.8,12,6.2,11
2019/12/12 7:00,3.5,11,3.6,12,6.9,12
2019/12/12 7:01,3.4,12,3.5,12,5.7,13
2019/12/12 7:02,3.3,12,3.4,11,7.1,12
2019/12/12 7:03,3.5,12,3.5,11,7.5,9
2019/12/12 7:04,3.5,11,3.5,11,6.8,10
2019/12/12 7:05,3.4,11,3.5,12,6.8,11
2019/12/12 7:06,3.6,11,3.6,12,7.4,11
2019/12/12 7:07,3.7,11,3.7,12,7.9,15
2019/12/12 7:08,3.6,12,3.7,12,4.9,14
2019/12/12 7:09,3.4,12,3.6,11,3.7,11
2019/12/12 7:10,3.4,12,3.4,11,5,12
2019/12/12 7:11,3.3,12,3.3,11,3.9,14
2019/12/12 7:12,3.3,12,3.4,11,5.8,13
2019/12/12 7:13,3.5,12,3.5,11,7.9,12
2019/12/12 7:14,3.4,12,3.5,11,6,11
2019/12/12 7:15,3.4,12,3.4,11,9.7,13
2019/12/12 7:16,3.5,12,3.5,11,9.3,11
2019/12/12 7:17,3.3,12,3.5,11,4.7,8
2019/12/12 7:18,3.4,12,3.4,12,6.2,12
2019/12/12 7:19,3.6,12,3.6,12,7.8,12
2019/12/12 7:20,3.9,11,3.9,11,9.1,9
2019/12/12 7:21,4,11,4,11,9.7,9
2019/12/12 7:22,4,11,4,11,8.5,11
2019/12/12 7:23,3.8,11,4,11,9.2,11
2019/12/12 7:24,4,11,4,11,9,12
2019/12/12 7:25,3.9,11,4,11,5.7,12
2019/12/12 7:26,3.8,11,3.8,11,9.1,11
2019/12/12 7:27,3.8,12,3.8,11,4.7,14
2019/12/12 7:28,3.6,12,3.8,11,3.5,13
2019/12/12 7:29,3.6,12,3.6,11,10.2,10
2019/12/12 7:30,3.4,12,3.6,11,5.7,10
2019/12/12 7:31,3.5,12,3.5,11,6.7,12
2019/12/12 7:32,3.6,12,3.7,11,8.3,13
2019/12/12 7:33,3.6,12,3.7,11,8.4,10
2019/12/12 7:34,3.5,12,3.6,11,7,12
2019/12/12 7:35,3.6,12,3.6,11,5.8,13
2019/12/12 7:36,3.6,12,3.6,11,8.9,12
2019/12/12 7:37,3.8,12,3.8,12,6.8,13
2019/12/12 7:38,3.9,12,3.9,12,5,15
2019/12/12 7:39,3.9,13,3.9,12,6.7,14
2019/12/12 7:40,3.9,13,3.9,12,6.7,14
2019/12/12 7:41,3.7,13,3.9,12,4.3,14
2019/12/12 7:42,3.4,13,3.6,12,4.5,10
2019/12/12 7:43,3.2,13,3.4,12,3.6,15
2019/12/12 7:44,3,13,3.2,12,4.1,16
2019/12/12 7:45,3,13,3,12,6.7,12
2019/12/12 7:46,3,13,3.1,12,7.5,12
2019/12/12 7:47,2.8,13,2.9,12,4.1,15
2019/12/12 7:48,2.8,13,2.8,12,6.4,15
2019/12/12 7:49,2.8,12,2.9,13,6.1,11
2019/12/12 7:50,2.6,12,2.7,13,2.6,11
2019/12/12 7:51,2.7,12,2.7,13,4.9,12
2019/12/12 7:52,2.8,12,2.8,13,6.2,13
2019/12/12 7:53,2.9,12,2.9,13,4.5,14
2019/12/12 7:54,3,12,3,13,5.2,12
2019/12/12 7:55,2.9,12,3,13,3.5,12
2019/12/12 7:56,2.7,12,2.8,12,5.2,13
2019/12/12 7:57,2.7,12,2.7,12,5,14
2019/12/12 7:58,2.7,12,2.8,12,4.4,12
2019/12/12 7:59,2.7,12,2.7,12,5,12
2019/12/12 8:00,2.7,12,2.8,12,4.8,13
2019/12/12 8:01,2.6,12,2.7,12,3.7,9
2019/12/12 8:02,2.5,12,2.6,12,6.2,10
2019/12/12 8:03,2.5,12,2.5,12,4.1,12
2019/12/12 8:04,2.5,12,2.5,12,9,13
2019/12/12 8:05,2.9,12,2.9,12,6.9,14
2019/12/12 8:06,3.1,12,3.1,12,8.2,13
2019/12/12 8:07,3.1,12,3.1,12,5.6,13
2019/12/12 8:08,2.9,12,3,12,3,10
2019/12/12 8:09,2.7,12,2.9,12,2.7,13
2019/12/12 8:10,3,12,3,12,7.2,13
2019/12/12 8:11,3.2,12,3.2,12,6.8,13
2019/12/12 8:12,3.2,12,3.2,12,4.7,13
2019/12/12 8:13,3.4,12,3.4,12,6.1,10
2019/12/12 8:14,3.5,12,3.6,12,7.8,10
2019/12/12 8:15,3.3,12,3.5,12,5.7,9
2019/12/12 8:16,3.1,11,3.2,12,4.8,10
2019/12/12 8:17,3.2,11,3.2,12,7.8,9
2019/12/12 8:18,3.5,11,3.5,12,6,12
2019/12/12 8:19,3.6,11,3.6,12,5.8,11
2019/12/12 8:20,3.7,11,3.8,11,8.6,10
2019/12/12 8:21,3.6,10,3.7,11,6.4,11
2019/12/12 8:22,3.5,10,3.5,11,5.2,11
2019/12/12 8:23,3.3,11,3.5,11,5.8,9
2019/12/12 8:24,3.2,11,3.3,11,7.7,12
2019/12/12 8:25,3.1,11,3.2,11,6.2,10
2019/12/12 8:26,2.9,11,3.1,11,3.7,9
2019/12/12 8:27,2.9,11,3,11,6.4,9
2019/12/12 8:28,3,11,3,11,8.1,10
2019/12/12 8:29,3.2,10,3.2,11,7,10
2019/12/12 8:30,3.1,10,3.2,11,9.4,10
2019/12/12 8:31,3.3,10,3.3,10,7,10
2019/12/12 8:32,3.5,10,3.5,10,6.9,9
2019/12/12 8:33,3.8,10,3.8,10,8.1,10
2019/12/12 8:34,4.2,10,4.2,10,11.3,10
2019/12/12 8:35,4.2,10,4.3,10,6.9,10
2019/12/12 8:36,4.4,10,4.4,10,6.9,10
2019/12/12 8:37,4.5,10,4.5,10,6.7,9
2019/12/12 8:38,4.3,10,4.5,10,5.4,9
2019/12/12 8:39,4.2,10,4.2,10,6.5,10
2019/12/12 8:40,4.2,10,4.2,10,6.8,10
2019/12/12 8:41,4.1,10,4.2,10,5.7,10
2019/12/12 8:42,4.1,10,4.2,10,7.6,10
2019/12/12 8:43,3.9,10,4.1,10,6.2,10
2019/12/12 8:44,3.6,10,4,10,8.5,10
2019/12/12 8:45,3.7,10,3.7,10,7.6,10
2019/12/12 8:46,3.7,10,3.8,10,6.4,11
2019/12/12 8:47,3.8,10,3.8,10,8.6,10
2019/12/12 8:48,3.8,10,3.8,10,5.4,11
2019/12/12 8:49,3.7,10,3.8,10,4.5,9
2019/12/12 8:50,3.6,10,3.7,10,7.1,10
2019/12/12 8:51,3.8,10,3.8,10,10.1,10
2019/12/12 8:52,3.8,10,3.8,10,8.1,9
2019/12/12 8:53,4,10,4,10,8.7,10
2019/12/12 8:54,4.1,10,4.1,10,6.7,9
2019/12/12 8:55,4,10,4,10,8.5,10
2019/12/12 8:56,4.1,10,4.1,10,10.3,9
2019/12/12 8:57,4.2,10,4.2,10,8.6,11
2019/12/12 8:58,4.1,10,4.2,10,4.8,9
2019/12/12 8:59,4.3,10,4.3,10,7,10
2019/12/12 9:00,4.3,10,4.3,10,8.4,11
2019/12/12 9:01,4.2,10,4.3,10,6.2,10
2019/12/12 9:02,4.3,10,4.3,10,7.4,11
2019/12/12 9:03,4.1,10,4.3,10,7.2,11
2019/12/12 9:04,3.9,10,4,10,6.8,9
2019/12/12 9:05,4.1,10,4.1,10,5.8,10
2019/12/12 9:06,4,10,4.1,10,7.4,11
2019/12/12 9:07,3.8,10,3.9,10,6.7,10
2019/12/12 9:08,4.1,10,4.1,10,6.7,10
2019/12/12 9:09,4,11,4.1,10,5.6,10
2019/12/12 9:10,3.9,10,4,10,4.9,9
2019/12/12 9:11,3.9,11,3.9,10,5,14
2019/12/12 9:12,3.6,11,3.9,10,3,10
2019/12/12 9:13,3.4,11,3.6,11,5.6,10
2019/12/12 9:14,3.5,11,3.6,11,6.2,9
2019/12/12 9:15,3.4,11,3.5,10,3.5,12
2019/12/12 9:16,3.1,11,3.3,10,4.1,11
2019/12/12 9:17,3,11,3.1,10,3.9,10
2019/12/12 9:18,2.8,11,2.9,10,6.5,10
2019/12/12 9:19,2.7,11,2.8,10,5.2,10
2019/12/12 9:20,2.7,11,2.8,11,4.4,10
2019/12/12 9:21,2.8,11,2.8,11,6.7,9
2019/12/12 9:22,3,11,3,11,6.9,12
2019/12/12 9:23,3.2,11,3.3,11,9.3,9
2019/12/12 9:24,3.2,10,3.2,11,8.3,10
2019/12/12 9:25,3.4,10,3.4,11,7.4,11
2019/12/12 9:26,3.5,10,3.5,10,5.6,10
2019/12/12 9:27,3.7,10,3.7,10,8.6,11
2019/12/12 9:28,3.7,10,3.8,10,6.4,10
2019/12/12 9:29,3.9,11,3.9,11,6.4,11
2019/12/12 9:30,4,10,4,10,7.7,9
2019/12/12 9:31,3.9,10,4,10,7.1,9
2019/12/12 9:32,3.9,10,4,10,9.9,11
2019/12/12 9:33,4,10,4,10,8.5,9
2019/12/12 9:34,4,10,4.1,10,9.1,9
2019/12/12 9:35,4.2,10,4.2,10,8.9,10
2019/12/12 9:36,4.3,10,4.3,10,6,10
2019/12/12 9:37,4.1,10,4.3,10,4.9,12
2019/12/12 9:38,3.8,11,4,10,3.2,12
2019/12/12 9:39,3.7,11,3.8,10,6.1,13
2019/12/12 9:40,3.5,11,3.7,10,3.3,10
2019/12/12 9:41,3.3,11,3.5,10,3.8,13
2019/12/12 9:42,3.1,11,3.3,10,3.8,10
2019/12/12 9:43,2.8,11,3,10,5.7,12
2019/12/12 9:44,2.6,12,2.8,10,4.8,10
2019/12/12 9:45,2.3,12,2.6,10,5.1,14
2019/12/12 9:46,2,12,2.2,10,3,10
2019/12/12 9:47,1.9,12,2,10,2.6,10
2019/12/12 9:48,1.8,12,1.9,11,1.1,13
2019/12/12 9:49,1.6,12,1.8,11,1.6,13
2019/12/12 9:50,1.6,12,1.6,11,3.5,9
2019/12/12 9:51,1.6,12,1.7,11,3.3,10
2019/12/12 9:52,1.6,12,1.7,11,2.9,10
2019/12/12 9:53,1.5,12,1.6,11,3.1,13
2019/12/12 9:54,1.4,12,1.5,12,3,11
2019/12/12 9:55,1.5,12,1.5,12,4.1,13
2019/12/12 9:56,1.6,12,1.6,12,6.5,12
2019/12/12 9:57,1.6,12,1.6,12,3.2,14
2019/12/12 9:58,1.7,12,1.7,12,3,14
2019/12/12 9:59,1.8,12,1.8,12,2.5,14
2019/12/12 10:00,1.7,13,1.8,12,1.6,6
2019/12/12 10:01,1.7,13,1.7,12,2.9,16
2019/12/12 10:02,1.7,14,1.7,12,3.9,14
2019/12/12 10:03,1.8,14,1.8,12,2.9,14
2019/12/12 10:04,2,15,2,15,4.8,15
2019/12/12 10:05,2,15,2,15,4.5,16
2019/12/12 10:06,2,15,2,15,4.8,16
2019/12/12 10:07,2,16,2,15,4.5,15
2019/12/12 10:08,2.3,16,2.3,16,5.6,15
2019/12/12 10:09,2.5,16,2.5,16,4.7,15
2019/12/12 10:10,2.7,16,2.7,16,4.9,14
2019/12/12 10:11,2.8,15,2.8,15,4.4,14
2019/12/12 10:12,3,15,3,15,5.1,13
2019/12/12 10:13,2.9,14,3,15,2.6,13
2019/12/12 10:14,2.6,14,2.9,15,0.9,10
2019/12/12 10:15,2.5,14,2.6,15,2.9,12
2019/12/12 10:16,2.4,13,2.5,15,1.8,12
2019/12/12 10:17,2.3,13,2.4,15,1.5,13
2019/12/12 10:18,1.9,13,2.2,15,1.6,12
2019/12/12 10:19,1.7,12,1.9,15,1.1,10
2019/12/12 10:20,1.5,12,1.7,15,0.8,14
2019/12/12 10:21,1.2,13,1.4,15,0.9,1
2019/12/12 10:22,0.9,13,1.1,15,0.3,15
2019/12/12 10:23,0.7,13,0.8,14,0.3,15
2019/12/12 10:24,0.7,14,0.7,14,0.9,15
2019/12/12 10:25,0.5,14,0.7,14,0.4,16
2019/12/12 10:26,0.6,14,0.6,13,3.1,9
2019/12/12 10:27,0.7,14,0.7,13,3.7,10
2019/12/12 10:28,0.9,14,0.9,13,4.9,10
2019/12/12 10:29,1.1,14,1.1,12,5.6,11
2019/12/12 10:30,1.2,13,1.2,12,2.6,10
2019/12/12 10:31,1.3,12,1.3,13,3.1,14
2019/12/12 10:32,1.4,12,1.4,12,1.9,13
2019/12/12 10:33,1.5,12,1.5,12,1.1,15
2019/12/12 10:34,1.5,11,1.5,12,2,15
2019/12/12 10:35,1.6,11,1.6,11,3.6,9
2019/12/12 10:36,1.6,11,1.6,11,3.3,10
2019/12/12 10:37,1.5,12,1.6,11,2.2,13
2019/12/12 10:38,1.4,12,1.5,11,1.8,13
2019/12/12 10:39,1.1,13,1.3,11,1.1,12
2019/12/12 10:40,1.1,13,1.1,11,2.1,1
2019/12/12 10:41,1.1,14,1.1,11,3.9,2
2019/12/12 10:42,1.3,15,1.3,11,3.7,16
2019/12/12 10:43,1.4,15,1.4,11,2.4,1
2019/12/12 10:44,1.5,15,1.5,11,4.4,16
2019/12/12 10:45,1.7,16,1.7,16,4.8,16
2019/12/12 10:46,1.8,16,1.8,16,3.5,16
2019/12/12 10:47,2,16,2,16,5,1